Preview of NWS' New Version of Forecast
This preview is not operational and should not be used for support decisions.

Regional Weather Roundup (RWR)

Issued by National Weather Service (NWS)

                            
000
ASUS42 KTBW 172116
RWRFL 
FLORIDA REGIONAL WEATHER ROUNDUP
NATIONAL WEATHER SERVICE TAMPA BAY RUSKIN FL
500 PM EDT WED APR 17 2019

NOTE: "FAIR" INDICATES FEW OR NO CLOUDS BELOW 12,000 FEET WITH NO
SIGNIFICANT WEATHER AND/OR OBSTRUCTIONS TO VISIBILITY.

FLZ001>010-012>015-112-114-115-172200-
PANHANDLE FLORIDA
  
CITY           SKY/WX    TMP DP  RH WIND       PRES   REMARKS
PENSACOLA      FAIR      76  66  71 SE9       30.04F                  
PENSACOLA NAS  PTSUNNY   75  66  73 E12       30.03F                  
MILTON NAS     PTSUNNY   79  59  50 S13       30.04F                  
CRESTVIEW        N/A    N/A N/A N/A MISG      30.05F                  
DUKE FIELD     FAIR      78  63  59 S13       30.04F                  
VALPARAISO     PTSUNNY   75  68  78 S10       30.04F                  
MARY ESTHER    MOSUNNY   75  67  75 SE10      30.03F                  
PANAMA CITY    FAIR      79  66  64 S15       30.03F                  
TYNDALL AFB    FAIR      77  62  60 S18       30.03F                  
APALACHICOLA   FAIR      74  63  68 SE9       30.06F                  

STATION/POSITION SKY/WX   TEMP    WIND        PRES    WAVE   SWELL
                          AIR SEA DIR/SP/G            HT/PER HT/PER
                          (F)     (DEG/KT/KT) (MB)    (FT/S) (FT/S)
30.1N   87.6W                                 1017.1F   1/ 4   2/ 4
29.2N   88.2W                      90/ 10/ 12 1016.5F   2/ 4   2/ 5
PANAMA CITY BEAC           71 72  150/ 12/ 14 1017.6F
TOWER C          NOT AVBL

$$
FLZ011-016>038-118-127-128-134-139-239-172200-
NORTH FLORIDA
  
CITY           SKY/WX    TMP DP  RH WIND       PRES   REMARKS
MARIANNA       FAIR      82  58  43 S5        30.01F                  
TALLAHASSEE    CLOUDY    80  57  45 S7        30.05F                  
PERRY          FAIR      80  63  55 SW12      30.06F                  
LIVE OAK       SUNNY     84  55  37 VRB5      30.04F                  
CROSS CITY     FAIR      84  56  38 SE5       30.04F                  
LAKE CITY      FAIR      81  59  47 SE9       30.05F                  
GAINESVILLE    FAIR      86  58  38 E10G17    30.07F                  
PALATKA        FAIR      81  61  50 E8G16     30.07F                  
MAYPORT NAS    PTSUNNY   76  63  64 E10       30.09F                  
JACKSONVILLE   PTSUNNY   79  60  52 E9        30.07F                  
JAX NAS        PTSUNNY   80  60  50 E12       30.08F                  
JAX CECIL      MOSUNNY   82  61  47 S14       30.06F                  
FERNANDINA BEA FAIR      74  62  68 E12       30.09F                  
ST AUGUSTINE   FAIR      77  63  61 E12       30.09F                  
PALM COAST     MOSUNNY   79  61  53 SE9       30.07F                  

STATION/POSITION SKY/WX   TEMP    WIND        PRES    WAVE   SWELL
                          AIR SEA DIR/SP/G            HT/PER HT/PER
                          (F)     (DEG/KT/KT) (MB)    (FT/S) (FT/S)
SHELL POINT      NOT AVBL
KEATON BEACH               72     230/  7/  9 1018.0F
CEDAR KEY                  75     250/  5/  7 1017.2F
FERNANDINA                 77 71  100/  7/ 10 1019.6F
30.7N   81.3W                 69                N/A     2/10
MAYPORT                    74 71   90/  8/ 12 1019.0F
31.4N   80.9W              71 70  110/  6/  8 1019.4F   3/10   2/10
ST AUGUSTINE               73 72   90/  7/  7 1018.9F

$$
FLZ040-043>046-052-053-057-058-063-144-172200-
INTERIOR CENTRAL FLORIDA
  
CITY           SKY/WX    TMP DP  RH WIND       PRES   REMARKS
OCALA          PTSUNNY   82  60  47 VRB6      30.05F                  
LEESBURG       CLOUDY    81  59  47 SE9       30.05F                  
SANFORD        FAIR      82  59  45 E10G18    30.06F                  
ORLANDO EXEC   PTSUNNY   84  58  40 E13G18    30.05F                  
ORLANDO INTL   PTSUNNY   83  55  38 SE12G21   30.05F                  
KISSIMMEE      PTSUNNY   82  59  45 E12       30.06F                  
WINTER HAVEN   FAIR      85  58  39 E14       30.05F                  
LAKELAND       PTSUNNY   82  57  42 E12       30.04F                  
BARTOW         MOSUNNY   82  55  39 E13       30.03F                  
SEBRING        FAIR      84  59  43 E14       30.03F                  
OKEECHOBEE     FAIR      81  59  47 E8        30.03F                  

$$
FLZ041-047-054-059-064-141-147-172200-
EAST CENTRAL FLORIDA
  
CITY           SKY/WX    TMP DP  RH WIND       PRES   REMARKS
ORMOND BEACH   MOSUNNY   77  61  57 SE8       30.08F                  
DAYTONA BEACH  PTSUNNY   79  63  57 E9        30.07F                  
DELAND         FAIR      81  59  47 E15       30.06F                  
NEW SMYRNA BEA MOSUNNY   81  63  54 E12       30.09F                  
JFK SPACE CTR  FAIR      79  63  57 SE9       30.06F                  
TITUSVILLE     MOSUNNY   82  61  47 SE12      30.07F                  
CAPE CANAVERAL FAIR      79  58  47 SE12      30.05F                  
PATRICK AFB    FAIR      80  62  53 E15       30.05F                  
MELBOURNE      PTSUNNY   79  62  56 E13       30.06F                  
VERO BEACH     FAIR      79  61  53 E13       30.05F                  
FT PIERCE      CLOUDY    78  60  53 E13       30.05F                  
STUART         MOSUNNY   81  57  44 E12G18    30.07                   

STATION/POSITION SKY/WX   TEMP    WIND        PRES    WAVE   SWELL
                          AIR SEA DIR/SP/G            HT/PER HT/PER
                          (F)     (DEG/KT/KT) (MB)    (FT/S) (FT/S)
28.5N   80.2W              76     100/ 12/ 16 1018.3F   3/ 8   2/ 8
28.9N   78.5W              74 78   80/ 14/ 16 1019.0F   4/ 9   3/ 9
TRIDENT PIER               79 78  100/  9/ 13 1019.4F
28.4N   80.5W                 77                N/A     2/ 4
27.5N   80.2W                 76                N/A     3/ 4

$$
FLZ050-056-061-142-242-148-248-149-249-151-251-155-255-
160-260-172200-
WEST CENTRAL FLORIDA
  
CITY           SKY/WX    TMP DP  RH WIND       PRES   REMARKS
CRYSTAL RIVER  PTSUNNY   82  59  44 E7        30.04F                  
INVERNESS      PTSUNNY   81  61  50 E7        30.06F                  
BROOKSVILLE    FAIR      85  60  42 SE13      30.04F                  
CLEARWATER AIR FAIR      77  63  61 NW8       30.03F                  
ST PETE CLEARW FAIR      83  58  42 E6        30.03F                  
TAMPA INTL     PTSUNNY   84  57  39 VRB7      30.03F                  
TAMPA EXEC     PTSUNNY   82  59  44 E8        30.04S                  
PLANT CITY     PTSUNNY   84  59  42 E8        30.05F                  
MACDILL AFB    DRIZZLE   84  59  42 E7        30.02F                  
PETER O KNIGHT PTSUNNY   86  61  42 NE8       30.03F                  
ST PETERSBURG  FAIR      82  64  54 NE8       30.01F                  
SARASOTA       FAIR      82  64  54 W13       30.01S                  
VENICE         FAIR      82  64  54 W12       30.02F                  

STATION/POSITION SKY/WX   TEMP    WIND        PRES    WAVE   SWELL
                          AIR SEA DIR/SP/G            HT/PER HT/PER
                          (F)     (DEG/KT/KT) (MB)    (FT/S) (FT/S)
27.3N   84.2W                 76                N/A     3/ 5
CLEARWATER BEACH                  310/ 11/ 13   N/A
MIDDLE TAMPA BAY           81     120/  5/  7 1016.7F
VENICE                     77 77  290/  9/ 10 1016.4F

$$
FLZ066-069-070-075>078-162-262-165-265-172200-
SOUTHWEST FLORIDA AND KEYS
  
CITY           SKY/WX    TMP DP  RH WIND       PRES   REMARKS
PUNTA GORDA    FAIR      85  57  38 E13       30.02F                  
FT MYERS       FAIR      85  60  42 NE8       29.99F                  
SOUTHWEST INTL PTSUNNY   84  59  42 E10       30.00F                  
NAPLES         FAIR      81  67  62 W9        30.00F                  
MARCO ISLAND   FAIR      84  66  54 W7        30.00F                  
IMMOKALEE      FAIR      86  61  42 VRB5G16   29.98F                  
MARATHON       FAIR      84  62  47 E12       30.00F                  
KEY WEST NAS   FAIR      83  64  52 E18       29.99F                  
KEY WEST INTL  FAIR      82  65  56 E16       30.00F                  

STATION/POSITION SKY/WX   TEMP    WIND        PRES    WAVE   SWELL
                          AIR SEA DIR/SP/G            HT/PER HT/PER
                          (F)     (DEG/KT/KT) (MB)    (FT/S) (FT/S)
NAPLES                     82 81  210/  5/  7 1015.9F
DRY TORTUGAS               78      90/ 13/ 15 1015.7F
SAND KEY                   76                 1015.7F
SOMBRERO KEY               76                 1015.4F

$$
FLZ067-068-071>074-168-172>174-172200-
SOUTHEAST FLORIDA 
  
CITY           SKY/WX    TMP DP  RH WIND       PRES   REMARKS
W PALM BEACH   PTSUNNY   79  60  52 E14       30.04F                  
BOCA RATON     MOSUNNY   82  61  47 E12G17    30.04F                  
FT LAUDER-EXEC FAIR      79  59  50 E10G18    30.03F                  
FT LAUDERDALE  PTSUNNY   78  60  53 E16       30.02F                  
POMPANO BEACH  FAIR      81  59  47 E13       30.03F                  
PEMBROKE PINES PTSUNNY   79  62  56 E15       30.04F                  
OPA LOCKA      FAIR      81  61  50 E12G18    30.03F                  
MIAMI          FAIR      80  61  52 E10G21    30.03F                  
WEST KENDALL   FAIR      82  63  52 E17G23    30.01F                  
HOMESTEAD      FAIR      80  62  54 NE13      30.01F                  

STATION/POSITION SKY/WX   TEMP    WIND        PRES    WAVE   SWELL
                          AIR SEA DIR/SP/G            HT/PER HT/PER
                          (F)     (DEG/KT/KT) (MB)    (FT/S) (FT/S)
PORT EVERGLADES            77      70/ 10/ 13 1017.5
VIRGINIA KEY                       50/ 12/ 16   N/A
LAKE WORTH                 76 79   70/ 12/ 17 1018.3F
SETTLEMENT POINT           76      60/ 14/ 16 1017.5F

$$